Cardiff-Wales, United Kingdom

11:49 AM BST on May 24, 2018 (GMT +0100)
Cardiff

Weather History for EGFF - March, 2013

Change the Weather History Date:

Wednesday, March 6, 2013

  Actual Average Record
Temperature  
Mean Temperature 46 °F -  
Max Temperature 48 °F 50 °F 53 °F (2007)
Min Temperature 44 °F 38 °F 30 °F (2005)
Degree Days  
Heating Degree Days 19    
Moisture  
Dew Point 41 °F    
Average Humidity 81    
Maximum Humidity 87    
Minimum Humidity 71    
Precipitation  
Precipitation 0.00 in 0.09 in - ()
Sea Level Pressure  
Sea Level Pressure 29.48 in    
Wind  
Wind Speed 11 mph ()    
Max Wind Speed 17 mph    
Max Gust Speed -    
Visibility 4.2 miles    
Events Rain    
Averages and records for this station are not official NWS values.
T = Trace of Precipitation, MM = Missing Value Source: Averaged Metar Reports

Daily Weather History Graph

Daily Weather History Graph

Search for Another Location

Airport or City:

Astronomy

Mar. 06, 2013 Rise Set
Actual Time 6:47 AM GMT 6:02 PM GMT
Civil Twilight 6:14 AM GMT 6:36 PM GMT
Nautical Twilight 5:35 AM GMT 7:14 PM GMT
Astronomical Twilight 4:56 AM GMT 7:53 PM GMT
Moon 3:13 AM GMT (3/6) 11:59 AM GMT (3/6)
Length of Visible Light 12h 21m
Length of Day
11h 15m
Waning Crescent, 32% of the Moon is Illuminated
Mar 6
Waning Crescent
Mar 11
New
Mar 19
First Quarter
Mar 27
Full
Apr 3
Last Quarter

Hourly Weather History & Observations

Time (GMT) Temp. Windchill Dew Point Humidity Pressure Visibility Wind Dir Wind Speed Gust Speed Precip Events Conditions
12:20 AM 46.4 °F 41.9 °F 39.2 °F 76% 29.53 in 6.2 mi ENE 9.2 mph - N/A   Partly Cloudy
12:50 AM 46.4 °F 42.4 °F 39.2 °F 76% 29.53 in 6.2 mi ENE 8.1 mph - N/A   Partly Cloudy
1:20 AM 46.4 °F 42.4 °F 37.4 °F 71% 29.53 in 6.2 mi ENE 8.1 mph - N/A   Scattered Clouds
1:50 AM 46.4 °F 42.4 °F 39.2 °F 76% 29.50 in 6.2 mi ENE 8.1 mph - N/A   Scattered Clouds
2:20 AM 46.4 °F 41.9 °F 39.2 °F 76% 29.50 in 6.2 mi ENE 9.2 mph - N/A   Scattered Clouds
2:50 AM 46.4 °F 41.9 °F 39.2 °F 76% 29.50 in 6.2 mi ENE 9.2 mph - N/A   Partly Cloudy
3:20 AM 46.4 °F 41.9 °F 39.2 °F 76% 29.50 in - ENE 9.2 mph - N/A   Clear
3:50 AM 46.4 °F 41.5 °F 39.2 °F 76% 29.50 in 6.2 mi ENE 10.4 mph - N/A   Unknown
4:20 AM 46.4 °F 41.5 °F 39.2 °F 76% 29.50 in - ENE 10.4 mph - N/A   Clear
4:50 AM 44.6 °F 39.2 °F 39.2 °F 81% 29.50 in 6.2 mi ENE 10.4 mph - N/A   Scattered Clouds
5:20 AM 44.6 °F 38.8 °F 39.2 °F 81% 29.50 in 6.2 mi ENE 11.5 mph - N/A   Mostly Cloudy
5:50 AM 44.6 °F 38.8 °F 39.2 °F 81% 29.50 in 6.2 mi ENE 11.5 mph - N/A   Mostly Cloudy
6:20 AM 44.6 °F 39.2 °F 39.2 °F 81% 29.50 in 5.6 mi ENE 10.4 mph - N/A   Mostly Cloudy
6:50 AM 44.6 °F 38.8 °F 39.2 °F 81% 29.50 in 3.7 mi ENE 11.5 mph - N/A   Mostly Cloudy
7:20 AM 44.6 °F 38.4 °F 39.2 °F 81% 29.50 in 4.3 mi ENE 12.7 mph - N/A Rain Rain
7:50 AM 46.4 °F 40.4 °F 39.2 °F 76% 29.50 in 4.3 mi ENE 13.8 mph - N/A   Partly Cloudy
8:20 AM 44.6 °F 37.4 °F 41.0 °F 87% 29.50 in 3.1 mi ENE 16.1 mph - N/A Rain Light Rain
8:50 AM 44.6 °F 37.4 °F 41.0 °F 87% 29.50 in 3.1 mi ENE 16.1 mph - N/A Rain Light Rain
9:20 AM 44.6 °F 37.8 °F 41.0 °F 87% 29.50 in 3.1 mi ENE 15.0 mph - N/A Rain Light Rain
9:50 AM 46.4 °F 40.1 °F 42.8 °F 87% 29.50 in 3.1 mi ENE 15.0 mph - N/A Rain Light Rain
10:20 AM 46.4 °F 39.8 °F 41.0 °F 81% 29.50 in 3.7 mi ENE 16.1 mph - N/A   Partly Cloudy
10:50 AM 46.4 °F 39.8 °F 41.0 °F 81% 29.50 in 3.7 mi ENE 16.1 mph - N/A   Scattered Clouds
11:20 AM 46.4 °F 39.8 °F 41.0 °F 81% 29.50 in 3.7 mi ENE 16.1 mph - N/A   Partly Cloudy
11:50 AM 46.4 °F 39.5 °F 41.0 °F 81% 29.50 in 3.7 mi ENE 17.3 mph - N/A   Partly Cloudy
12:20 PM 48.2 °F - 41.0 °F 76% 29.50 in 3.7 mi ENE 17.3 mph - N/A   Unknown
12:50 PM 46.4 °F 40.1 °F 41.0 °F 81% 29.47 in 3.7 mi ENE 15.0 mph - N/A   Unknown
1:20 PM 46.4 °F 39.8 °F 41.0 °F 81% 29.47 in 3.7 mi ENE 16.1 mph - N/A   Unknown
1:50 PM 46.4 °F 39.5 °F 41.0 °F 81% 29.47 in 3.7 mi ENE 17.3 mph - N/A   Unknown
2:20 PM 48.2 °F - 41.0 °F 76% 29.47 in 3.7 mi ENE 16.1 mph - N/A   Unknown
2:50 PM 48.2 °F - 41.0 °F 76% 29.47 in 3.7 mi ENE 15.0 mph - N/A   Partly Cloudy
3:20 PM 48.2 °F - 42.8 °F 82% 29.47 in 3.7 mi ENE 16.1 mph - N/A   Scattered Clouds
3:50 PM 48.2 °F - 42.8 °F 82% 29.47 in 3.7 mi ENE 16.1 mph - N/A   Mostly Cloudy
4:20 PM 48.2 °F - 41.0 °F 76% 29.44 in 3.7 mi ENE 16.1 mph - N/A   Mostly Cloudy
4:50 PM 48.2 °F - 41.0 °F 76% 29.44 in 3.7 mi ENE 16.1 mph - N/A   Mostly Cloudy
5:20 PM 48.2 °F - 42.8 °F 82% 29.44 in 3.7 mi ENE 16.1 mph - N/A   Mostly Cloudy
5:50 PM 48.2 °F - 42.8 °F 82% 29.44 in 3.7 mi ENE 16.1 mph - N/A   Partly Cloudy
6:20 PM 48.2 °F - 42.8 °F 82% 29.47 in 3.7 mi ENE 16.1 mph - N/A   Unknown
6:50 PM 48.2 °F - 42.8 °F 82% 29.47 in 3.1 mi ENE 16.1 mph - N/A   Haze
7:20 PM 48.2 °F - 42.8 °F 82% 29.47 in 3.1 mi ENE 15.0 mph - N/A   Haze
7:50 PM 48.2 °F - 42.8 °F 82% 29.47 in 3.1 mi ENE 16.1 mph - N/A   Haze
8:20 PM 48.2 °F - 42.8 °F 82% 29.47 in - ENE 15.0 mph - N/A   Haze
8:50 PM 46.4 °F 40.4 °F 42.8 °F 87% 29.47 in 2.8 mi ENE 13.8 mph - N/A   Haze
9:20 PM 48.2 °F - 42.8 °F 82% 29.47 in 3.1 mi ENE 16.1 mph - N/A   Haze
9:50 PM 48.2 °F - 42.8 °F 82% 29.47 in 3.7 mi ENE 13.8 mph - N/A   Scattered Clouds
10:20 PM 46.4 °F 41.1 °F 42.8 °F 87% 29.47 in 2.8 mi ENE 11.5 mph - N/A   Mostly Cloudy
10:50 PM 46.4 °F 40.1 °F 42.8 °F 87% 29.47 in - ENE 15.0 mph - N/A   Haze
11:20 PM 46.4 °F 40.1 °F 42.8 °F 87% 29.44 in - East 15.0 mph - N/A   Haze
11:50 PM 46.4 °F 40.4 °F 42.8 °F 87% 29.44 in - East 13.8 mph - N/A   Haze